OpenBCM V1.08-5-g2f4a (Linux)

Packet Radio Mailbox

IZ3LSV

[San Dona' di P. JN]

 Login: GUEST





  
I0OJJ  > KEPS     26.06.25 01:43l 341 Lines 16337 Bytes #6 (0) @ AMSAT
BID : ORB25177.1
Read: GUEST
Subj: 2Line Orbital Elements 25177.AMSAT
Path: IZ3LSV<IK6IHL<IK7NXU<HB9ON<DK0WUE<PD0LPM<PI8ZTM<VK2IO<VK2RZ<LU9DCE<
      VE3TOK<IR0AAB<I0OJJ
Sent: 250626/0025z @:I0OJJ.ITA.EU [Rome] obcm1.08-10-g596e
From: I0OJJ @ I0OJJ.ITA.EU (Gustavo)
To:   KEPS @ AMSAT
X-Info: This message was generated automatically


QST de W1STR

AMSAT Orbital Elements for Amateur Satellites in TLE Format
From Orbital Analysis Office
New England Sci-Tech STEM Education Center
Natick, MA June 26, 2025
To all radio amateurs


These element sets describe the orbits of various satellites 
in use by the amateur radio community. For details see:
www.amsat.org/keplerian-elements-formats/

A daily update of element sets is available at:
www.amsat.org/tle/daily-bulletin.txt
or without bulletin text:
www.amsat.org/tle/dailytle.txt


AO-07
1 07530U 74089B   25176.46954727 -.00000037  00000-0  61142-4 0  9997
2 07530 101.9928 180.9028 0012656  91.8064  76.3178 12.53689786315818
UO-11
1 14781U 84021B   25176.32167527  .00000903  00000-0  10077-3 0  9990
2 14781  97.7551 142.3797 0006353 288.9561  71.0967 14.89426181203982
AO-27
1 22825U 93061C   25176.44169315  .00000074  00000-0  45234-4 0  9995
2 22825  98.7360 238.0760 0009452  69.9117 290.3082 14.30804042655986
FO-29
1 24278U 96046B   25176.42604531  .00000003  00000-0  42675-4 0  9995
2 24278  98.5741  68.2321 0348984 301.6612  55.0927 13.53249730424911
NOAA-15
1 25338U 98030A   25176.58796900  .00000182  00000-0  92625-4 0  9995
2 25338  98.5342 201.3333 0009304 317.6667  42.3795 14.26987795410431
GO-32
1 25397U 98043D   25176.21678982  .00000034  00000-0  34657-4 0  9990
2 25397  98.9708 155.6627 0001894 130.3038 229.8306 14.24318472400517
ISS
1 25544U 98067A   25176.73245655  .00008102  00000-0  14854-3 0  9994
2 25544  51.6390 264.7180 0001990 278.3788 217.2311 15.50240116516482
NO-44
1 26931U 01043C   25176.15383247  .00000079  00000-0  60743-4 0  9993
2 26931  67.0511  87.5737 0006131 276.6412  83.3992 14.31741308239335
SO-50
1 27607U 02058C   25176.34679328  .00000940  00000-0  13452-3 0  9991
2 27607  64.5516 151.8651 0058173 330.5671  29.2161 14.81661591211565
CO-55
1 27844U 03031E   25176.48928767  .00000205  00000-0  10842-3 0  9999
2 27844  98.6753 184.5572 0010464 135.9188 224.2826 14.24006968140930
CO-57
1 27848U 03031J   25175.95305241  .00000185  00000-0  10087-3 0  9998
2 27848  98.6783 184.0221 0009980 153.5945 206.5744 14.23339890140553
RS-22
1 27939U 03042A   25176.57411495  .00000643  00000-0  10984-3 0  9994
2 27939  98.3290 346.4128 0010593 324.7351 104.4913 14.72385606163053
CO-58
1 28895U 05043F   25176.23078610  .00000960  00000-0  16460-3 0  9997
2 28895  98.2515 320.7781 0013265 255.7454 104.2279 14.71056221 49244
CO-65
1 32785U 08021C   25176.56732175  .00002415  00000-0  17659-3 0  9996
2 32785  97.7857 147.8513 0010735 148.2861 211.9013 15.04554738931489
CO-66
1 32791U 08021J   25176.38310312  .00006781  00000-0  32718-3 0  9991
2 32791  97.7274 156.7800 0005781 107.7010 252.4855 15.19012491932899
RS-30
1 32953U 08025A   25176.57828067  .00000050  00000-0  28985-3 0  9991
2 32953  82.5017 217.2290 0019385  15.0008 345.1643 12.43165678775389
NOAA-19
1 33591U 09005A   25176.55668948  .00000150  00000-0  10421-3 0  9994
2 33591  98.9968 241.3504 0012952 322.1657  37.8604 14.13381391844105
SRMSAT
1 37841U 11058D   25176.38363691  .00000354  00000-0  48617-4 0  9990
2 37841  19.9731  58.9100 0011738 238.4217 293.4111 14.11440341707340
ZACUBE-1
1 39417U 13066B   25175.82897459  .00004114  00000-0  35778-3 0  9995
2 39417  97.7807 132.7618 0044051   3.9277 356.2282 14.96780274627195
Delfi-N3xt
1 39428U 13066N   25176.22429909  .00003739  00000-0  38278-3 0  9993
2 39428  97.8348  93.7019 0083260 309.9424  49.4498 14.88573495621401
GOMX-1
1 39430U 13066Q   25176.50773473  .00001329  00000-0  21198-3 0  9991
2 39430  97.6820  34.1937 0133260 140.9504 220.1415 14.67689624617561
LO-74
1 39440U 13066AA  25176.59374089  .00002441  00000-0  24963-3 0  9990
2 39440  97.8501 121.0441 0063235 126.3063 234.4017 14.90016019623828
AO-73
1 39444U 13066AE  25176.53090885  .00003612  00000-0  27181-3 0  9993
2 39444  97.7810 138.5090 0041434 335.0257  24.8962 15.02515323625983
DTUSAT-2
1 40030U 14033W   25176.47777983  .00004702  00000-0  30622-3 0  9990
2 40030  98.0552 149.0672 0009474  16.7424 343.4114 15.08433488598797
EO-80
1 40032U 14033Y   25176.36450537  .00003441  00000-0  22489-3 0  9994
2 40032  98.0435 148.5819 0007169 316.4188  43.6471 15.08517993598757
LILACSAT-2
1 40908U 15049K   25176.53848572  .00007494  00000-0  19453-3 0  9992
2 40908  97.5043 197.2723 0011119 102.7438 257.5050 15.39221722540681
IO-86
1 40931U 15052B   25151.18580175  .00001241  00000-0  78118-4 0  9996
2 40931   6.0006  24.0987 0012733 338.8432  21.1169 14.78805930523047
Horyu-4
1 41340U 16012D   25176.25567032  .00013762  00000-0  35952-3 0  9999
2 41340  30.9979  26.4707 0005994 228.7377 131.2752 15.37454712515203
Lapan A3
1 41603U 16040E   25176.59039264  .00002374  00000-0  84257-4 0  9990
2 41603  97.1363 180.5703 0010139 203.0321 157.0467 15.29952570500239
CAS-2T
1 41847U 16066G   25176.48671506  .00001296  00000-0  19127-3 0  9992
2 41847  98.4199 250.8103 0347000 130.2886 232.9190 14.43530487453318
CAS-4B
1 42759U 17034B   25176.55729592  .00042469  00000-0  41426-3 0  9992
2 42759  43.0048 226.5100 0019822  38.2116 322.0151 15.65234461445102
CAS-4A
1 42761U 17034D   25176.57686181  .00045493  00000-0  41914-3 0  9995
2 42761  43.0086 223.3664 0020821  43.1966 317.0529 15.66598738445122
TechnoSat
1 42829U 17042E   25176.03559387  .00001333  00000-0  10646-3 0  9990
2 42829  97.3855 344.0082 0015304 220.0867 139.9230 15.01770026433043
AO-91
1 43017U 17073E   25176.35266221  .00005390  00000-0  27447-3 0  9995
2 43017  97.5233  46.7268 0173850 112.6596 249.3119 15.04938672411586
S-Net D
1 43186U 18014G   25176.44917966  .00002674  00000-0  15962-3 0  9998
2 43186  97.5619  79.1946 0009510 160.0441 200.1163 15.11950322404772
S-Net B
1 43187U 18014H   25176.19005633  .00002738  00000-0  16346-3 0  9998
2 43187  97.5627  78.9107 0010326 157.1710 202.9981 15.11928528404738
S-Net A
1 43188U 18014J   25176.44951252  .00002680  00000-0  15992-3 0  9996
2 43188  97.5631  79.3196 0010194 156.9042 203.2649 15.11955036404778
S-Net C
1 43189U 18014K   25176.45722828  .00002916  00000-0  17375-3 0  9992
2 43189  97.5647  79.3441 0011897 151.3062 208.8825 15.11925984403327
Ten-Koh
1 43677U 18084G   25176.46586712  .00001325  00000-0  10995-3 0  9996
2 43677  98.0853 349.3505 0006742 197.0457 163.0540 15.00634206362628
PO-101
1 43678U 18084H   25176.54917153  .00001166  00000-0  10309-3 0  9995
2 43678  98.1025 353.2833 0007927 230.1555 129.8969 14.98383164362774
QO-100
1 43700U 18090A   25176.21913406  .00000143  00000-0  00000-0 0  9997
2 43700   0.0164 333.1363 0002205 164.4980 240.6638  1.00273239 24091
MinXSS-2
1 43758U 18099A   25176.13386679  .00011420  00000-0  44396-3 0  9995
2 43758  97.5017 242.2225 0013283 102.3641 257.9085 15.26126568359343
AO-95
1 43770U 18099N   25175.68448891  .00005597  00000-0  28250-3 0  9992
2 43770  97.4912 233.6043 0011586 152.9505 207.2334 15.17457006358849
RANGE-A
1 43773U 18099R   25176.38103912  .00002478  00000-0  15948-3 0  9990
2 43773  97.4472 224.3249 0012688 132.5456 227.6846 15.09208843358603
MOVE-II
1 43780U 18099Y   25176.47543559  .00342295  00000-0  13140-2 0  9998
2 43780  97.4620 253.4516 0006060 218.8742 141.2094 15.86524408360319
SNUSat 2
1 43782U 18099AA  25176.13083375  .00004854  00000-0  26434-3 0  9995
2 43782  97.4588 230.6701 0013702 100.1834 260.0944 15.14806914358859
SnugLite
1 43784U 18099AC  25176.10698100  .00006525  00000-0  32588-3 0  9996
2 43784  97.4403 230.2386 0005162 102.3455 257.8357 15.17801816358992
ITASat 1
1 43786U 18099AE  25176.41823268  .00004218  00000-0  24129-3 0  9996
2 43786  97.4560 230.4153 0015366 146.9110 213.3086 15.13094667358856
EAGLET 1
1 43790U 18099AJ  25176.39758316  .00002291  00000-0  14791-3 0  9992
2 43790  97.4755 230.2999 0013412 130.8631 229.3763 15.09164818358459
ESEO
1 43792U 18099AL  25176.38365296  .00000906  00000-0  72083-4 0  9994
2 43792  97.4478 223.3402 0015273 106.0066 254.2843 15.02671515358196
CSIM
1 43793U 18099AM  25176.18610491  .00063811  00000-0  36405-3 0  9994
2 43793  97.4787 255.3296 0005237 152.2783 207.8763 15.78720991360109
JO-97
1 43803U 18099AX  25176.11059570  .00008179  00000-0  37010-3 0  9993
2 43803  97.4654 235.0496 0009069  93.6045 266.6228 15.21126352359136
Suomi 100
1 43804U 18099AY  25176.41379757  .00005667  00000-0  27629-3 0  9993
2 43804  97.4722 234.6016 0014001  94.2492 266.0342 15.18637696359103
ISAT
1 43879U 18111D   25175.99333741  .00012381  00000-0  42319-3 0  9999
2 43879  97.5957  90.7319 0010199 134.3257 225.8821 15.30381664356053
UWE-4
1 43880U 18111E   25176.21125205  .00008462  00000-0  32861-3 0  9997
2 43880  97.5901  89.3233 0012938 147.5693 212.6342 15.26263591356017
Sparrow
1 43881U 18111F   25176.55070989  .00011327  00000-0  37270-3 0  9996
2 43881  97.6105  94.2419 0007299 163.7405 196.4071 15.31662147356239
Prox-1
1 44339U 19036A   25176.46118204  .00006655  00000-0  82168-3 0  9999
2 44339  23.9983 317.4561 0006716 256.9132 103.0615 14.80227974320379
SONATE
1 44400U 19038Q   25176.51438665  .00578962  17436-3  65810-3 0  9996
2 44400  97.6692 205.9239 0009119 189.3774 170.7340 16.09123266332121
Taurus 1
1 44530U 19059C   25176.63005309  .00003591  00000-0  66464-3 0  9994
2 44530  98.6086 316.7871 0008446 353.5482   6.5610 14.65997368306296
Duchifat 3
1 44854U 19089C   25176.56386534  .00026774  00000-0  50264-3 0  9999
2 44854  36.9420 253.4716 0003342  92.9343 267.1797 15.47751551305492
TO-108
1 44881U 19093C   25176.52270127  .00000608  00000-0  76332-4 0  9993
2 44881  97.7923 251.8393 0013966 173.3810 186.7592 14.85627917298448
